WMT8HT LRSB-EDDN

Flight info

Callsign WMT8HT
Flight time N/A
Altitude 36000
Route ULMIN DCT TIXIP DCT TEGRI DCT GAZDA DCT ARSIN DCT SUBEN T161 AKINI Z109 UPALA UPALA1V
Aircraft A320/M-SDE1E2E3FGIJ1J4RWXY/LB1

Departure

Time N/A
Airport Sibiu International Airport (LRSB)

Arrival

Time 2026-05-04 12:04
Airport Nuremberg Airport (EDDN)
Time Latitude Longitude Altitude Speed Heading
2026-05-04 11:13 47.45802 17.15084 36094 ft 417 kts 292°
2026-05-04 11:13 47.46901 17.11118 36097 ft 417 kts 292°
2026-05-04 11:13 47.49096 17.03192 36075 ft 416 kts 292°
2026-05-04 11:14 47.51289 16.95257 36063 ft 417 kts 292°
2026-05-04 11:16 47.59587 16.64883 36068 ft 414 kts 292°
2026-05-04 11:16 47.61748 16.56975 36048 ft 414 kts 292°
2026-05-04 11:17 47.63904 16.49049 36049 ft 414 kts 292°
2026-05-04 11:19 47.72414 16.17342 36010 ft 414 kts 291°
2026-05-04 11:19 47.74535 16.09382 36009 ft 415 kts 291°
2026-05-04 11:20 47.76656 16.01401 36013 ft 415 kts 291°
2026-05-04 11:20 47.78777 15.93406 36014 ft 416 kts 291°
2026-05-04 11:22 47.87200 15.61304 36032 ft 416 kts 290°
2026-05-04 11:23 47.89291 15.53279 36031 ft 416 kts 290°
2026-05-04 11:25 47.96548 15.25150 36022 ft 415 kts 290°
2026-05-04 11:25 47.98613 15.17112 36024 ft 415 kts 290°
2026-05-04 11:27 48.07808 14.80848 36022 ft 415 kts 290°
2026-05-04 11:28 48.09824 14.72829 36021 ft 415 kts 290°
2026-05-04 11:28 48.11843 14.64750 36021 ft 415 kts 289°
2026-05-04 11:29 48.13858 14.56661 36025 ft 415 kts 289°
2026-05-04 11:29 48.15868 14.48560 36021 ft 415 kts 289°
2026-05-04 11:33 48.29761 13.91852 36025 ft 413 kts 288°
2026-05-04 11:33 48.31720 13.83741 36022 ft 413 kts 288°
2026-05-04 11:34 48.33668 13.75619 36022 ft 413 kts 288°
2026-05-04 11:34 48.35612 13.67498 36020 ft 413 kts 288°
2026-05-04 11:35 48.37554 13.59372 36020 ft 413 kts 288°
2026-05-04 11:35 48.39491 13.51245 36019 ft 413 kts 288°
2026-05-04 11:36 48.41418 13.43109 36019 ft 413 kts 287°
2026-05-04 11:36 48.43336 13.34962 36012 ft 413 kts 287°
2026-05-04 11:37 48.45338 13.26908 36011 ft 414 kts 289°
2026-05-04 11:37 48.47512 13.18876 36009 ft 414 kts 290°
2026-05-04 11:38 48.49680 13.10834 36009 ft 414 kts 289°
2026-05-04 11:38 48.51800 13.02752 36010 ft 414 kts 289°
2026-05-04 11:39 48.53901 12.94653 36007 ft 415 kts 289°
2026-05-04 11:41 48.61269 12.66252 36020 ft 415 kts 289°
2026-05-04 11:41 48.63357 12.58119 36020 ft 415 kts 289°
2026-05-04 11:42 48.65439 12.49980 36021 ft 415 kts 289°
2026-05-04 11:42 48.67519 12.41846 36020 ft 415 kts 289°
2026-05-04 11:43 48.69594 12.33708 36016 ft 414 kts 288°
2026-05-04 11:43 48.71658 12.25568 36030 ft 414 kts 288°
2026-05-04 11:44 48.73709 12.17419 36021 ft 414 kts 288°
2026-05-04 11:44 48.76408 12.09675 36019 ft 421 kts 304°
2026-05-04 11:45 48.80051 12.02712 35924 ft 423 kts 305°
2026-05-04 11:45 48.81874 11.99226 35667 ft 422 kts 304°
2026-05-04 11:45 48.83693 11.95736 35411 ft 421 kts 304°
2026-05-04 11:45 48.85500 11.92257 35160 ft 419 kts 304°
2026-05-04 11:46 48.87297 11.88795 34837 ft 415 kts 304°
2026-05-04 11:46 48.89079 11.85364 34442 ft 412 kts 304°
2026-05-04 11:46 48.90838 11.81959 34049 ft 408 kts 304°
2026-05-04 11:46 48.92583 11.78575 33612 ft 404 kts 304°
2026-05-04 11:47 48.94311 11.75229 33157 ft 401 kts 304°
2026-05-04 11:47 48.96030 11.71901 32584 ft 402 kts 304°
2026-05-04 11:47 48.97754 11.68548 32121 ft 399 kts 304°
2026-05-04 11:47 48.99454 11.65246 31740 ft 394 kts 304°
2026-05-04 11:48 49.01142 11.61981 31309 ft 391 kts 304°
2026-05-04 11:48 49.02819 11.58731 30846 ft 389 kts 304°
2026-05-04 11:48 49.04487 11.55482 30352 ft 389 kts 304°
2026-05-04 11:48 49.06147 11.52238 29845 ft 388 kts 304°
2026-05-04 11:49 49.07802 11.48994 29280 ft 388 kts 304°
2026-05-04 11:49 49.09455 11.45749 28733 ft 387 kts 304°
2026-05-04 11:49 49.11108 11.42504 28181 ft 387 kts 304°
2026-05-04 11:49 49.12762 11.39261 27654 ft 386 kts 304°
2026-05-04 11:50 49.14408 11.36031 27200 ft 382 kts 304°
2026-05-04 11:50 49.16017 11.32875 26609 ft 373 kts 304°
2026-05-04 11:50 49.17595 11.29770 25909 ft 368 kts 304°
2026-05-04 11:50 49.19151 11.26699 25191 ft 363 kts 304°
2026-05-04 11:51 49.20690 11.23656 24477 ft 360 kts 305°
2026-05-04 11:51 49.22409 11.20843 23765 ft 366 kts 315°
2026-05-04 11:51 49.24330 11.18263 22978 ft 369 kts 315°
2026-05-04 11:51 49.26238 11.15677 22177 ft 363 kts 313°
2026-05-04 11:52 49.28193 11.13267 21386 ft 362 kts 329°
2026-05-04 11:52 49.30584 11.12067 20634 ft 365 kts 351°
2026-05-04 11:52 49.33127 11.12188 19894 ft 372 kts
2026-05-04 11:52 49.35577 11.13551 19158 ft 378 kts 31°
2026-05-04 11:53 49.37489 11.16235 18455 ft 372 kts 57°
2026-05-04 11:53 49.38441 11.19780 17678 ft 362 kts 84°
2026-05-04 11:53 49.38404 11.23566 16885 ft 352 kts 99°
2026-05-04 11:53 49.38060 11.27260 16178 ft 346 kts 102°
2026-05-04 11:55 49.35374 11.51354 11879 ft 312 kts 102°
2026-05-04 11:55 49.35063 11.54619 11275 ft 308 kts 96°
2026-05-04 11:56 49.35394 11.57835 10715 ft 309 kts 66°
2026-05-04 11:56 49.36723 11.60360 10143 ft 307 kts 35°
2026-05-04 11:56 49.38690 11.61592 9340 ft 310 kts
2026-05-04 11:56 49.40841 11.62061 8492 ft 318 kts 358°
2026-05-04 11:57 49.42942 11.61150 7992 ft 314 kts 326°
2026-05-04 11:57 49.44424 11.58853 7630 ft 295 kts 297°
2026-05-04 11:57 49.45031 11.55964 7278 ft 278 kts 277°
2026-05-04 11:57 49.45333 11.53094 6932 ft 267 kts 277°
2026-05-04 11:58 49.45614 11.50328 6593 ft 258 kts 277°
2026-05-04 11:58 49.45883 11.47656 6233 ft 248 kts 277°
2026-05-04 11:58 49.46139 11.45072 5857 ft 241 kts 278°
2026-05-04 11:58 49.46388 11.42550 5427 ft 236 kts 278°
2026-05-04 11:59 49.46641 11.40048 4970 ft 236 kts 278°
2026-05-04 11:59 49.46891 11.37589 4620 ft 230 kts 278°
2026-05-04 11:59 49.47132 11.35204 4314 ft 221 kts 278°
2026-05-04 11:59 49.47364 11.32907 4020 ft 214 kts 278°
2026-05-04 12:00 49.47589 11.30679 3756 ft 208 kts 278°
2026-05-04 12:00 49.47808 11.28496 3471 ft 203 kts 278°
2026-05-04 12:00 49.48016 11.26430 3220 ft 188 kts 278°
2026-05-04 12:00 49.48145 11.25143 3077 ft 181 kts 279°
2026-05-04 12:01 49.48331 11.23287 2810 ft 169 kts 278°
2026-05-04 12:01 49.48502 11.21579 2612 ft 153 kts 278°
2026-05-04 12:02 49.49395 11.12568 1481 ft 142 kts 279°
2026-05-04 12:03 49.49548 11.11070 1304 ft 142 kts 279°
2026-05-04 12:03 49.49696 11.09569 1089 ft 142 kts 280°
2026-05-04 12:03 49.49834 11.08195 1032 ft 112 kts 278°
2026-05-04 12:03 49.49923 11.07273 1024 ft 62 kts 278°
2026-05-04 12:04 49.49966 11.06826 1024 ft 34 kts 278°
2026-05-04 12:04 49.49987 11.06553 1024 ft 13 kts 261°
2026-05-04 12:04 49.49930 11.06475 1023 ft 10 kts 186°
2026-05-04 12:04 49.49865 11.06504 1021 ft 8 kts 157°
2026-05-04 12:05 49.49809 11.06555 1020 ft 11 kts 128°
2026-05-04 12:05 49.49787 11.06680 1020 ft 14 kts 99°
2026-05-04 12:05 49.49771 11.06841 1020 ft 16 kts 98°
2026-05-04 12:05 49.49756 11.07004 1021 ft 12 kts 98°
2026-05-04 12:06 49.49743 11.07141 1022 ft 14 kts 98°
2026-05-04 12:06 49.49724 11.07224 1022 ft 6 kts 141°
2026-05-04 12:06 49.49679 11.07228 1024 ft 7 kts 187°
2026-05-04 12:06 49.49641 11.07240 1024 ft 6 kts 131°
2026-05-04 12:07 49.49632 11.07305 1025 ft 7 kts 99°
2026-05-04 12:07 49.49623 11.07388 1025 ft 9 kts 99°
2026-05-04 12:07 49.49612 11.07492 1022 ft 9 kts 98°
2026-05-04 12:07 49.49583 11.07526 1025 ft 4 kts 184°
2026-05-04 12:08 49.49557 11.07520 1026 ft 3 kts 188°
2026-05-04 12:08 49.49546 11.07517 1026 ft 1 kts 188°
2026-05-04 12:08 49.49542 11.07516 1026 ft 0 kts 188°